Temp
16 15 15 14 13 13 13 13 13 13 13 14 14 14 15 14 14 14 15 15 14 14 15 17 13 13 17 16 12 12 11 11 11 11 11 11 13 14 13 13 12 13 11
13 13 13 13 13 12 12 12 12 12 12 13 14 13 13 14 14 14 14 14 13 13 14 15 14 13 13 17 16 12 11 11 11 11 11 13 14 14 13 14 13 12 12
12 11 10 9 9 10 11 11 11 11 11 11 12 12 13 13 14 14 14 14 13 13 13 14 14 14 12 13 16 13 11 11 11 11 11 14 14 14 14 14 13 13 13
11 10 9 9 8 8 8 8 9 9 9 10 10 11 12 12 13 14 14 14 14 13 13 14 14 14 13 12 13 14 12 11 10 11 11 13 15 15 15 14 14 13 14
9 9 9 8 8 8 8 7 7 7 7 7 8 10 11 11 11 12 13 14 13 14 13 14 14 14 13 12 12 13 12 11 11 11 11 13 15 15 15 14 14 14 14
9 8 8 7 6 6 6 6 6 5 5 6 7 7 9 11 11 11 12 13 14 13 13 13 13 14 14 13 12 11 12 12 11 13 13 14 15 15 15 14 14 14 14
7 7 6 6 5 5 5 5 5 5 5 5 5 5 7 8 10 10 11 11 13 14 13 13 12 13 14 14 13 12 11 11 13 13 14 14 15 15 15 14 14 14 13
6 6 6 5 5 5 5 5 4 4 4 4 4 4 4 5 7 9 10 11 11 12 12 12 12 13 14 14 13 12 12 11 13 14 15 14 15 15 15 14 14 14 14
6 6 5 5 5 5 5 4 4 4 4 4 4 4 3 4 4 7 8 9 10 12 12 12 12 12 12 14 13 12 12 12 13 15 14 14 14 15 14 14 14 13 13
5 5 5 5 5 5 4 4 4 4 4 4 4 3 3 3 2 4 6 7 8 10 12 12 12 12 12 13 13 12 12 12 12 16 14 14 14 14 14 14 14 13 14
5 5 5 5 5 4 4 4 4 4 3 3 3 3 3 3 3 3 4 5 5 8 9 10 12 12 11 12 13 12 11 11 12 14 15 15 14 14 14 14 13 13 14
5 4 4 4 4 4 4 4 4 3 3 3 3 3 2 1 2 2 3 3 4 6 6 10 11 11 12 12 13 13 11 12 11 12 15 15 15 13 14 14 13 14 13
4 4 4 4 4 4 3 3 3 3 3 3 3 2 1 1 1 2 2 3 3 5 6 9 11 13 11 12 13 13 11 11 11 11 15 15 15 13 13 14 13 14 13
4 4 4 4 4 3 3 3 3 3 3 3 2 1 1 1 1 2 2 2 3 4 4 4 9 12 11 12 13 12 11 11 11 11 14 15 15 14 14 14 14 14 14
4 4 4 4 3 3 3 3 3 2 3 2 2 1 1 0 1 1 2 2 3 4 4 5 9 11 11 11 13 12 11 11 11 11 13 14 14 14 14 13 14 13 14
4 4 4 4 3 3 3 3 3 3 2 2 1 -0 0 0 0 1 2 3 4 4 4 6 9 11 10 11 12 12 11 11 11 11 13 14 14 14 13 13 13 13 14
4 4 4 4 3 3 3 3 2 2 2 1 0 -0 0 0 1 2 3 4 5 5 4 6 6 8 11 10 11 11 12 11 11 11 14 14 14 14 13 13 13 13 14
4 4 4 3 3 3 3 3 2 2 2 1 0 -0 0 1 2 3 4 4 4 6 5 6 7 7 11 10 12 11 11 11 12 12 13 14 13 14 13 13 13 13 13
3 3 3 3 3 3 3 3 3 2 2 1 0 0 1 1 2 3 4 5 6 5 6 6 7 8 9 10 11 11 11 11 11 13 13 14 13 13 13 13 13 13 13
3 3 3 3 3 3 3 3 3 2 2 1 1 0 1 2 2 4 5 5 6 7 7 6 7 8 10 9 10 11 9 10 11 12 13 13 12 13 13 13 13 13 13
3 3 3 3 3 3 3 3 3 2 2 2 2 1 1 2 3 4 6 6 6 6 7 6 6 8 9 8 9 9 10 9 10 12 13 12 12 11 12 13 13 13 13
3 3 2 2 2 2 2 2 2 2 2 2 2 1 2 2 3 5 6 7 7 7 7 7 7 8 9 9 9 9 9 9 9 10 12 12 11 11 12 13 13 13 13
2 2 2 2 2 2 2 2 2 2 2 2 2 1 2 2 3 5 6 7 7 7 7 7 7 9 9 9 9 9 9 9 9 11 12 11 11 11 12 13 13 12 12
2 2 2 2 2 2 2 2 2 2 2 2 2 1 1 2 4 5 5 7 8 7 8 9 8 8 10 10 11 10 9 9 9 11 11 9 10 10 11 12 12 12 12
2 1 1 1 1 2 2 2 2 2 2 2 2 1 1 2 4 4 5 6 7 9 8 9 9 8 9 10 10 10 10 9 9 9 9 12 10 10 10 11 11 11 12
2 1 1 1 1 2 2 2 2 2 2 2 2 2 1 3 4 4 5 6 8 9 9 8 10 8 9 9 10 10 10 9 9 8 8 11 10 9 8 9 11 11 11
Height
1539 1537 1535 1534 1533 1532 1530 1529 1528 1527 1527 1528 1528 1527 1527 1527 1527 1526 1527 1526 1527 1528 1529 1528 1531 1531 1525 1528 1534 1539 1542 1544 1546 1546 1547 1549 1550 1551 1552 1552 1553 1553 1554
1536 1534 1533 1531 1530 1528 1527 1526 1525 1524 1523 1523 1523 1523 1523 1523 1523 1522 1522 1521 1521 1523 1524 1525 1525 1529 1528 1524 1527 1534 1538 1541 1543 1545 1545 1546 1548 1550 1550 1551 1552 1552 1553
1533 1531 1529 1528 1527 1525 1524 1523 1522 1521 1521 1520 1519 1518 1518 1517 1517 1517 1517 1516 1515 1516 1519 1520 1523 1522 1527 1525 1522 1528 1533 1537 1540 1542 1543 1544 1547 1548 1550 1550 1551 1552 1552
1531 1529 1528 1526 1525 1523 1521 1519 1518 1518 1517 1516 1514 1513 1513 1512 1511 1511 1510 1510 1510 1510 1512 1515 1518 1519 1522 1525 1523 1523 1527 1532 1536 1539 1541 1542 1544 1547 1548 1549 1550 1551 1551
1529 1527 1526 1525 1523 1521 1519 1517 1516 1515 1513 1511 1510 1508 1506 1504 1504 1503 1502 1503 1503 1502 1504 1508 1512 1515 1516 1520 1522 1521 1523 1526 1532 1534 1537 1539 1542 1544 1546 1548 1550 1551 1551
1527 1525 1523 1522 1520 1518 1516 1514 1512 1511 1510 1507 1505 1502 1500 1497 1496 1496 1495 1496 1496 1496 1497 1499 1504 1508 1511 1514 1518 1520 1520 1521 1526 1530 1533 1536 1539 1542 1544 1546 1549 1549 1550
1524 1522 1520 1518 1517 1516 1513 1511 1509 1506 1505 1504 1499 1495 1492 1489 1487 1486 1487 1486 1486 1488 1491 1491 1494 1500 1505 1508 1512 1515 1517 1518 1521 1526 1530 1533 1536 1539 1542 1545 1547 1548 1548
1520 1519 1518 1517 1515 1513 1511 1509 1507 1504 1503 1502 1499 1493 1484 1481 1482 1480 1479 1479 1478 1481 1482 1486 1485 1490 1496 1500 1505 1510 1513 1514 1516 1522 1527 1530 1533 1537 1540 1542 1545 1546 1547
1518 1517 1515 1514 1512 1511 1509 1507 1505 1503 1499 1498 1497 1495 1488 1481 1477 1473 1469 1468 1470 1472 1473 1476 1478 1480 1486 1492 1498 1504 1508 1510 1512 1517 1523 1526 1530 1534 1537 1540 1543 1544 1545
1515 1514 1512 1510 1508 1507 1504 1503 1501 1499 1496 1491 1489 1489 1486 1483 1479 1465 1460 1460 1459 1464 1464 1466 1471 1473 1476 1483 1490 1496 1502 1507 1508 1512 1519 1523 1527 1531 1534 1538 1540 1542 1543
1512 1510 1508 1506 1505 1503 1500 1498 1496 1493 1491 1487 1483 1481 1477 1475 1474 1471 1459 1449 1451 1452 1455 1458 1461 1468 1467 1475 1481 1488 1495 1502 1504 1508 1514 1519 1524 1527 1531 1535 1538 1539 1541
1507 1506 1504 1502 1500 1498 1496 1493 1490 1487 1484 1481 1477 1474 1471 1469 1466 1464 1460 1451 1450 1443 1443 1450 1453 1459 1458 1468 1473 1480 1489 1496 1501 1505 1509 1515 1520 1524 1529 1533 1535 1537 1539
1502 1501 1499 1497 1495 1493 1490 1487 1484 1480 1477 1474 1470 1465 1463 1461 1460 1456 1453 1443 1443 1433 1436 1437 1443 1450 1450 1458 1465 1472 1482 1489 1496 1501 1504 1511 1516 1521 1526 1529 1533 1535 1536
1497 1496 1494 1493 1490 1487 1483 1481 1477 1473 1469 1466 1462 1458 1453 1449 1448 1445 1445 1442 1436 1431 1429 1429 1435 1439 1443 1447 1457 1465 1473 1482 1490 1495 1500 1506 1512 1518 1523 1527 1530 1533 1535
1493 1491 1489 1486 1482 1480 1477 1473 1469 1465 1462 1458 1454 1449 1443 1436 1435 1433 1432 1433 1431 1426 1424 1421 1420 1429 1439 1443 1450 1458 1465 1475 1483 1490 1496 1502 1508 1515 1519 1524 1527 1530 1533
1488 1485 1483 1479 1476 1473 1470 1466 1461 1458 1455 1450 1446 1437 1431 1424 1421 1419 1417 1419 1420 1422 1417 1413 1411 1419 1430 1438 1444 1451 1457 1469 1478 1485 1491 1497 1504 1511 1516 1521 1525 1528 1530
1483 1480 1477 1473 1469 1465 1462 1458 1454 1450 1446 1441 1436 1428 1419 1411 1407 1405 1402 1403 1406 1408 1409 1405 1409 1415 1423 1430 1438 1446 1453 1464 1472 1479 1487 1493 1500 1507 1512 1518 1523 1526 1528
1477 1475 1470 1466 1462 1458 1455 1451 1446 1441 1437 1432 1425 1418 1409 1401 1395 1395 1394 1397 1399 1400 1403 1400 1402 1405 1414 1422 1428 1439 1447 1459 1467 1474 1482 1488 1496 1503 1509 1515 1520 1523 1525
1471 1468 1464 1460 1456 1452 1446 1444 1439 1434 1429 1424 1416 1408 1401 1393 1387 1385 1386 1386 1387 1388 1392 1392 1393 1396 1405 1414 1421 1433 1441 1452 1463 1470 1478 1485 1493 1499 1506 1512 1517 1520 1523
1465 1461 1458 1453 1449 1445 1440 1436 1432 1427 1422 1417 1409 1401 1393 1386 1382 1378 1377 1379 1380 1379 1386 1386 1389 1386 1395 1405 1416 1424 1437 1446 1456 1464 1473 1481 1489 1496 1503 1509 1514 1518 1520
1460 1456 1451 1447 1442 1439 1434 1430 1426 1420 1415 1409 1403 1393 1384 1377 1371 1371 1367 1369 1373 1375 1377 1379 1379 1384 1388 1397 1407 1418 1429 1440 1449 1457 1465 1474 1483 1490 1497 1504 1510 1514 1517
1453 1449 1446 1441 1436 1432 1428 1424 1420 1414 1408 1403 1396 1388 1377 1370 1363 1361 1360 1362 1366 1368 1372 1375 1375 1376 1380 1391 1402 1412 1422 1433 1442 1452 1459 1468 1477 1485 1493 1499 1506 1511 1515
1446 1444 1439 1435 1429 1425 1421 1417 1413 1409 1402 1396 1392 1386 1375 1367 1362 1358 1355 1355 1361 1361 1365 1365 1370 1372 1379 1386 1396 1408 1417 1425 1430 1437 1453 1462 1472 1481 1490 1497 1503 1508 1512
1441 1436 1434 1429 1424 1419 1415 1411 1407 1403 1397 1389 1383 1377 1373 1363 1357 1351 1350 1348 1347 1351 1352 1356 1364 1372 1378 1384 1389 1401 1412 1424 1431 1438 1448 1457 1467 1477 1486 1494 1500 1505 1510
1435 1431 1428 1423 1419 1414 1410 1405 1401 1397 1392 1385 1377 1372 1366 1361 1354 1349 1346 1342 1341 1343 1350 1354 1360 1365 1375 1381 1387 1399 1408 1416 1424 1433 1443 1450 1461 1474 1483 1489 1495 1502 1507
1429 1425 1421 1418 1414 1410 1405 1400 1397 1392 1387 1381 1375 1368 1360 1354 1346 1343 1341 1337 1338 1338 1344 1350 1356 1358 1367 1375 1385 1391 1399 1407 1415 1431 1438 1446 1454 1465 1478 1486 1491 1496 1501
Wind_Speed
20 20 19 18 16 16 16 17 15 11 9 9 14 22 18 19 22 23 23 27 27 25 21 20 21 21 13 12 20 17 15 15 13 12 12 10 9 7 6 5 5 4 5
18 19 19 19 19 20 21 20 17 15 14 13 15 15 21 23 27 29 28 28 29 26 24 22 21 24 19 14 17 21 18 16 15 15 14 12 9 7 7 5 5 5 3
19 20 19 19 20 22 23 23 22 20 17 15 16 18 22 26 26 28 33 29 32 31 27 22 25 24 23 18 16 24 22 20 18 16 16 13 11 10 7 7 5 3 2
18 18 18 18 19 22 22 22 22 24 23 21 20 21 21 26 33 33 34 34 36 37 30 26 28 26 26 24 19 24 24 20 20 19 18 15 13 11 10 8 6 4 1
16 17 18 18 20 23 22 23 24 20 22 23 25 26 26 27 27 32 33 38 41 38 39 35 29 32 29 29 24 26 26 25 23 21 19 17 15 13 12 10 6 3 3
15 17 19 20 22 24 25 25 23 21 21 23 23 24 26 33 34 32 35 36 40 46 40 36 33 31 33 32 29 28 30 26 24 24 21 18 17 16 14 11 8 5 4
17 18 17 19 20 20 24 26 26 27 25 22 28 27 27 30 36 39 35 36 38 41 44 39 33 34 35 35 34 30 29 30 27 25 22 20 19 17 15 12 9 6 6
17 18 18 19 20 22 23 26 25 27 27 24 26 32 27 33 31 35 36 43 35 37 40 40 44 36 37 37 39 35 33 31 29 27 24 22 20 18 15 13 11 8 6
16 17 17 20 21 21 23 24 25 25 29 28 28 29 21 21 38 34 29 26 36 45 41 38 41 42 39 38 42 41 37 34 31 29 26 24 22 19 16 13 11 9 7
17 16 20 20 21 22 24 25 26 27 29 32 33 31 30 34 36 40 45 39 24 39 48 46 42 41 40 41 39 46 43 38 32 31 29 26 23 20 17 14 11 9 7
16 20 20 20 22 24 26 26 28 31 33 35 33 33 39 43 42 35 38 43 38 37 41 46 49 46 44 45 39 47 46 44 38 34 31 28 24 22 18 15 12 10 8
21 20 22 23 24 27 28 29 33 31 33 33 36 41 39 38 42 37 33 40 38 54 32 44 45 44 48 47 41 43 48 45 41 35 35 30 26 22 19 15 14 10 8
22 23 23 25 27 27 31 31 32 35 34 36 39 39 40 40 47 42 36 41 38 51 52 34 45 49 41 49 43 41 47 48 45 40 37 32 29 24 20 17 14 11 8
24 23 25 24 30 32 30 32 34 35 36 36 37 35 41 50 47 37 40 38 37 41 50 52 39 50 43 48 43 40 43 49 46 44 39 34 31 26 21 17 14 11 8
25 25 27 31 30 30 32 32 34 35 34 33 36 45 54 46 37 41 43 39 39 29 41 46 31 53 47 41 45 40 45 46 46 46 40 36 33 27 22 18 15 11 9
24 26 30 30 33 32 32 34 33 33 33 39 46 39 41 41 38 37 35 40 42 39 42 36 24 48 45 43 45 42 46 45 43 46 42 38 35 29 24 19 15 12 10
26 28 31 32 33 33 33 32 34 37 38 40 44 43 45 43 43 29 34 33 32 38 51 42 40 23 48 48 48 46 45 45 43 45 44 40 36 31 26 21 16 13 11
27 29 32 33 33 33 33 35 36 36 38 42 44 46 45 45 43 30 28 33 34 38 39 37 40 24 55 50 51 48 47 47 44 45 43 42 38 33 28 22 17 14 12
28 30 32 32 34 35 34 34 34 36 38 42 42 45 43 38 40 29 27 31 31 45 27 31 32 32 52 57 52 49 46 45 46 44 42 42 39 35 30 24 19 16 13
28 30 33 33 33 33 32 35 34 35 38 41 41 46 43 35 40 29 25 29 33 29 24 32 29 27 52 51 52 50 44 44 46 45 43 42 39 36 31 26 21 17 15
28 31 34 31 31 32 32 30 33 36 38 38 43 49 38 37 38 28 25 26 27 30 27 27 31 26 48 50 53 46 47 43 46 48 46 44 41 38 34 29 24 20 17
29 31 30 32 31 31 30 31 32 35 36 39 43 43 38 39 35 26 23 27 27 29 29 34 32 35 49 53 50 47 48 45 39 44 50 46 44 40 37 33 27 22 19
31 30 30 29 31 31 30 29 30 33 35 39 42 37 40 35 35 21 17 18 31 31 28 28 29 41 47 53 52 48 49 50 45 49 51 48 45 41 37 32 26 23 20
29 29 31 29 29 30 28 28 30 31 34 39 40 39 39 31 35 23 25 18 23 27 28 30 34 20 49 53 49 52 53 46 37 46 48 45 46 41 37 31 27 24 22
30 31 29 28 30 30 29 29 28 30 32 38 38 41 39 34 34 30 30 22 17 33 29 34 29 23 42 51 54 52 51 46 42 47 47 43 46 40 35 32 29 27 24
29 29 29 28 27 27 26 26 28 29 33 35 35 40 38 35 37 32 29 20 20 32 35 35 33 25 42 51 55 57 54 52 48 39 46 41 50 45 29 31 31 31 29
Wind_Direction
348 349 349 350 346 336 327 322 315 302 293 277 302 303 290 268 267 247 259 251 250 251 255 245 236 232 253 257 195 213 219 220 211 209 209 214 223 232 228 231 230 226 228
349 349 351 350 346 343 341 338 334 314 291 276 265 289 288 281 271 261 254 255 243 243 247 245 228 238 229 249 220 203 216 214 209 213 217 216 217 219 218 209 217 222 240
350 355 357 355 349 345 343 341 339 332 319 291 276 276 277 283 277 263 262 251 245 248 246 248 231 229 233 226 225 205 215 213 214 213 213 211 209 209 211 207 214 216 221
348 352 353 352 344 344 346 344 340 328 321 311 290 275 274 284 281 276 259 253 248 247 247 244 239 231 228 222 225 207 212 217 211 214 215 213 207 204 207 209 208 209 192
341 344 346 344 339 339 340 337 333 330 320 316 311 287 271 268 283 275 270 257 248 246 247 247 241 231 226 223 222 211 211 211 210 216 212 210 206 204 208 209 207 202 213
335 337 341 341 339 336 333 333 331 326 314 311 298 291 282 264 269 273 270 266 259 253 247 241 235 235 228 227 225 214 214 212 209 214 210 205 204 206 210 211 206 209 220
336 340 341 329 328 325 325 326 326 323 323 318 317 304 283 266 259 267 263 265 257 256 246 236 229 232 231 226 225 220 212 213 207 212 205 204 203 204 209 210 209 210 228
337 331 326 322 319 322 319 323 324 321 318 319 311 313 318 302 285 279 275 262 260 254 248 242 229 224 230 226 219 220 214 212 206 206 203 204 201 204 209 210 207 209 228
323 318 315 310 317 313 315 315 312 311 309 305 302 305 307 303 305 281 270 264 264 257 249 244 241 225 221 228 220 217 214 213 203 204 201 202 201 204 207 208 203 212 225
316 309 302 310 308 309 307 309 307 305 305 303 302 299 288 295 301 300 289 276 273 253 253 246 237 227 219 225 226 215 214 212 205 202 200 201 200 203 205 203 201 213 220
300 301 306 302 304 303 304 306 301 300 296 299 296 297 295 293 305 289 286 292 297 280 247 238 235 228 217 226 226 217 213 214 206 201 199 200 199 201 203 202 203 210 217
306 306 306 305 301 299 301 298 302 301 298 296 292 295 291 293 300 288 278 280 288 278 285 238 225 218 212 221 226 222 212 219 205 202 197 198 199 198 201 197 206 205 210
307 304 302 299 304 301 297 300 300 299 300 293 294 292 286 292 299 283 279 278 283 281 269 252 224 221 209 211 222 222 213 218 210 203 196 196 199 198 197 196 203 205 203
300 302 305 303 298 305 302 299 300 299 300 295 295 290 288 294 294 275 273 280 276 275 277 271 232 218 209 208 220 219 212 215 215 204 196 194 200 198 196 195 201 202 202
300 300 300 302 304 302 301 301 299 302 303 294 294 296 298 294 286 276 279 268 261 260 271 269 240 211 207 205 215 211 210 210 210 206 197 193 199 197 196 196 199 199 201
301 299 302 301 301 301 302 300 300 298 297 295 304 306 304 301 288 276 267 263 241 253 252 266 246 209 196 198 211 208 207 207 207 206 195 192 199 195 196 197 195 197 200
296 299 301 304 303 300 303 300 298 298 298 302 306 309 309 307 303 283 285 261 247 260 243 258 260 235 195 192 195 201 206 205 208 204 194 193 198 195 197 197 194 197 199
296 300 301 302 303 299 300 299 299 300 300 305 309 312 310 314 300 286 277 249 249 246 246 258 250 258 196 191 200 201 207 210 208 198 193 195 199 197 198 196 195 199 200
297 301 302 302 301 300 300 300 300 297 300 310 312 314 310 310 310 297 282 255 258 252 238 248 252 250 187 193 197 203 207 208 208 201 195 196 199 200 199 198 197 200 201
300 301 301 303 303 303 302 301 301 300 306 311 312 314 319 311 314 307 280 257 252 242 244 245 245 271 178 184 194 197 193 203 200 198 195 196 198 201 200 201 201 201 201
301 303 305 305 304 302 302 303 302 304 308 311 311 315 320 315 323 311 292 251 237 236 241 255 259 226 171 175 184 187 189 193 198 194 191 193 195 198 198 201 202 202 201
304 306 306 305 307 305 303 303 301 304 308 309 314 319 325 320 337 311 287 245 237 236 238 237 258 234 170 182 180 180 177 178 174 198 192 191 196 196 198 201 200 201 201
306 307 307 307 307 309 307 305 305 305 306 307 316 323 332 320 332 324 305 264 230 236 238 245 255 176 174 184 181 177 176 182 180 185 194 188 193 197 199 199 199 200 200
309 308 308 313 311 310 311 309 308 307 308 311 319 327 330 317 330 327 326 286 250 235 244 250 239 237 195 192 195 181 179 178 182 183 190 183 190 194 196 197 199 199 200
309 311 310 313 312 313 313 312 312 309 308 315 322 324 325 317 326 324 315 300 269 229 234 235 233 240 193 193 189 177 175 172 168 181 185 190 186 190 194 196 197 198 201
310 310 312 313 313 311 314 313 314 311 313 317 316 318 326 329 329 323 314 300 255 226 218 220 237 233 188 190 185 180 175 175 168 167 184 188 184 184 180 197 199 197 198